Flag for Canada Weather past 2 weeks in Glace Bay, Nova Scotia, Canada

57 °F


Feels Like: 55 °F
Forecast: 54 / 64 °F
Wind: 9 mph from South

Location: Sydney

Current Time: Oct 13, 2015 at 9:41:05 AM

Latest Report: Oct 13, 2015 at 9:00 AM

Visibility: 4 mi

Pressure: 29.93 "Hg

Humidity: 100%

Dew point: 57 °F

Location of Glace BayLocation

Historic Weather in Glace Bay — Graph


Glace Bay temperature yesterday

Maximum temperature yesterday: 63 °F (at 2:00 PM)
Minimum temperature yesterday: 52 °F (at 5:00 AM)
Average temperature yesterday: 55 °F

Past Weeks' High & Low Weather Summary

High79 °F (Sep 29, 3:00 PM)100% (Oct 1, 9:00 AM)30.42 "Hg (Oct 1, 9:00 AM)
Low34 °F (Oct 10, 10:00 PM)41% (Sep 28, 2:00 PM)29.43 "Hg (Oct 10, 8:00 AM)
Average54 °F83%30.04 "Hg
* Reported Sep 28 8:00 AM — Oct 13 8:00 AM, Glace Bay, Weather by CustomWeather, © 2015

Note: Actual official high and low records may vary slightly from our data, if they occured in-between our weather recording intervals... More about our weather records


Glace Bay weather history for previous 24 hours

Time TempWeatherWind HumidityBarometerVisibility
8:00 AM
Tue, Oct 13
55 °FFog.7 mph100%29.93 "Hg4 mi
7:00 AM55 °FFog.7 mph100%29.93 "Hg1 mi
6:00 AM55 °FPassing clouds.7 mph100%29.94 "Hg10 mi
5:04 AM52 °FPassing clouds.8 mph100%29.93 "Hg15 mi
4:00 AM52 °FPassing clouds.6 mph100%29.93 "Hg15 mi
3:00 AM54 °FPassing clouds.7 mph100%29.94 "Hg15 mi
2:00 AM55 °FPassing clouds.9 mph94%29.95 "Hg7 mi
1:00 AM55 °FFog.12 mph94%29.95 "Hg4 mi
12:00 AM54 °FFog.9 mph100%29.94 "Hg2 mi
11:00 PM
Mon, Oct 12
54 °FFog.9 mph100%29.93 "Hg1 mi
10:50 PM54 °FFog.8 mph100%29.93 "Hg1 mi
10:04 PM54 °FFog.9 mph100%29.92 "Hg2 mi
9:52 PM54 °FPassing clouds.8 mph100%29.92 "Hg7 mi
9:00 PM54 °FPassing clouds.8 mph100%29.91 "Hg15 mi
8:00 PM54 °FPassing clouds.8 mph94%29.90 "Hg15 mi
7:00 PM55 °FPartly sunny.5 mph82%29.90 "Hg15 mi
6:00 PM59 °FPartly sunny.5 mph72%29.88 "Hg15 mi
5:00 PM61 °FScattered clouds.7 mph59%29.88 "Hg15 mi
4:00 PM61 °FScattered clouds.5 mph63%29.86 "Hg15 mi
3:00 PM63 °FScattered clouds.13 mph56%29.85 "Hg15 mi
2:00 PM63 °FPartly sunny.13 mph59%29.85 "Hg15 mi
1:00 PM61 °FPartly sunny.9 mph68%29.86 "Hg15 mi
12:00 PM57 °FPartly sunny.10 mph77%29.87 "Hg15 mi
11:00 AM55 °FPartly sunny.7 mph82%29.88 "Hg15 mi
10:00 AM54 °FOvercast.6 mph88%29.88 "Hg15 mi
9:00 AM54 °FOvercast.7 mph88%29.86 "Hg15 mi
Weather by CustomWeather, © 2015

See weather overviewHow to use our weather pages